Regional Weather Roundup
Issued by NWS

Home | Current Version | Previous Version | Text Only | Print | Product List | Glossary On
Versions: 1 2 3 4 5 6 7 8 9 10 11 12 13 14 15 16 17 18 19 20 21 22 23 24 25 26 27 28 29 30 31 32 33 34 35 36 37 38 39 40 41 42 43 44 45 46 47 48 49 50
000
ASUS43 KLSX 010559
RWRMO

WEATHER SUMMARY FOR MISSOURI
NATIONAL WEATHER SERVICE SPRINGFIELD MO
100 AM CDT WED OCT 01 2014

NOTE: "FAIR" INDICATES FEW OR NO CLOUDS BELOW 12,000 FEET WITH NO
       SIGNIFICANT WEATHER AND/OR OBSTRUCTIONS TO VISIBILITY.
       CURRENT SKY AND/OR WEATHER CONDITIONS ARE NOT AVAILABLE FOR
       CHILLICOTHE AND FARMINGTON.

MOZ001>031-035>038-043-044-053-054-010700-
...NORTHERN AND WESTERN MISSOURI...

CITY           SKY/WX    TMP DP  RH WIND       PRES   REMARKS
KANSAS CTY INT CLOUDY    68  63  84 SE12      29.77F
6HR MIN TEMP:  68; 6HR MAX TEMP:  75; 6HR PCP:  0.01;

KANSAS C DTWN  CLOUDY    73  61  65 SE12G17   29.77F
6HR MIN TEMP:  71; 6HR MAX TEMP:  81; 6HR PCP:  0.03;

LEE`S SUMMIT   CLOUDY    70  59  68 S10       29.81F
6HR MIN TEMP:  70; 6HR MAX TEMP:  78;

ST JOSEPH      CLOUDY    73  60  63 S14       29.75F
6HR MIN TEMP:  72; 6HR MAX TEMP:  76;

CHILLICOTHE      N/A     69  62  78 SE5       29.82F
6HR MIN TEMP:  68; 6HR MAX TEMP:  76;

KIRKSVILLE     PTCLDY    62  50  65 E10       29.87F
6HR MIN TEMP:  62; 6HR MAX TEMP:  69;


$$
MOZ066>068-077>081-088>096-101>105-010700-
...SOUTHWEST MISSOURI...

CITY           SKY/WX    TMP DP  RH WIND       PRES   REMARKS
SPRINGFIELD    CLEAR     66  55  67 SE9       29.86F
6HR MIN TEMP:  65; 6HR MAX TEMP:  75;

JOPLIN         PTCLDY    70  59  68 SE10      29.82F
6HR MIN TEMP:  69; 6HR MAX TEMP:  76;


$$
MOZ032>034-039>042-045>050-055>058-069>072-010700-
...CENTRAL MISSOURI...

CITY           SKY/WX    TMP DP  RH WIND       PRES   REMARKS
COLUMBIA       CLEAR     67  57  70 SE7       29.86S
6HR MIN TEMP:  65; 6HR MAX TEMP:  77;

JEFFERSON CITY CLEAR     62  57  83 CALM      29.85S
6HR MIN TEMP:  62; 6HR MAX TEMP:  79;

ROLLA          CLEAR     64  51  62 S7        29.87F
6HR MIN TEMP:  63; 6HR MAX TEMP:  76;

SEDALIA        CLEAR     67  56  67 S8        29.84S
6HR MIN TEMP:  66; 6HR MAX TEMP:  74;

OSAGE BEACH    CLEAR     64  54  68 SE5       29.85F

$$
MOZ051-052-059>065-010700-
...EAST CENTRAL MISSOURI...

CITY           SKY/WX    TMP DP  RH WIND       PRES   REMARKS
ST LOUIS INTL  CLEAR     67  59  75 E7        29.91S
6HR MIN TEMP:  67; 6HR MAX TEMP:  78;

SPIRIT OF STL  CLEAR    N/A N/A N/A CALM      29.88F
ST CHARLES     CLEAR     64  59  83 E6        29.90S
6HR MIN TEMP:  63; 6HR MAX TEMP:  74;


$$
MOZ072>076-082>087-097>100-106>115-010700-
...SOUTH CENTRAL AND SOUTHEAST MISSOURI...

CITY           SKY/WX    TMP DP  RH WIND       PRES   REMARKS
CAPE GIRARDEAU CLEAR     57  55  93 E3        29.90S
6HR MIN TEMP:  56; 6HR MAX TEMP:  73;

FARMINGTON     CLEAR     57  54  88 CALM      29.93S
6HR MIN TEMP:  57; 6HR MAX TEMP:  73;

POPLAR BLUFF   CLEAR     60  56  86 CALM      29.88S
6HR MIN TEMP:  59; 6HR MAX TEMP:  74;

WEST PLAINS    CLEAR     56  52  86 CALM      29.92S
6HR MIN TEMP:  56; 6HR MAX TEMP:  73;


$$



USA.gov is the U.S. government's official web portal to all federal, state and local government web resources and services.